CAPE
1580 1738 2090 1924 1791 1817 1797 1846 1901 1699 1826 1612 1730 1676 1622 1567 1544 1507 1682 1745 1698 1847 1831 1578 1264 1319 1304 1308 1119 920 1662 1563 1069 1109 1560 1867 1604 1649 1502 1694 1669 1007 1874
1281 1775 2113 2249 1713 1819 1834 1875 1932 1874 1845 1966 1400 1216 1312 1672 1625 1616 1687 1662 1605 1355 1575 1215 1083 1218 1120 1181 1238 1227 1082 1197 1609 1506 1269 1163 1521 1737 1650 1984 1867 1003 1609
1174 1517 1546 2449 1889 1854 1807 1574 1938 1733 1671 1360 1619 1718 1695 1658 1421 1364 1213 1189 1149 1175 1274 1423 1211 1278 1305 1264 1059 1013 1117 1191 1197 1349 1538 1506 1113 1640 1741 1435 1311 1639 1960
1067 1251 1403 2128 1983 1734 1823 1439 1686 1696 1719 1529 1864 1976 1605 1368 1434 1467 1472 1436 1323 1259 1205 1163 1137 1141 1185 1215 1157 1064 1204 1127 1191 1428 1272 1037 656 1499 1917 1728 1530 1246 1575
1106 1110 1485 1859 1962 1768 1460 1158 1481 1552 1201 1273 1553 1623 1346 1268 1276 1265 1132 998 916 849 777 793 948 1160 1236 1242 1192 1289 1226 1180 1336 1114 1446 1586 1279 646 1194 1874 1722 1782 1601
1037 1117 1998 1853 1811 1702 1526 1369 1538 1178 1087 894 1020 1399 1222 1051 970 859 746 618 519 721 1083 1125 1275 1064 1528 1532 1688 1443 1611 1393 1386 1024 1336 1575 1634 1485 1229 1382 1882 1995 1873
880 716 1015 1815 1522 1304 1484 1469 1660 885 1032 782 836 949 983 905 898 792 646 864 1001 931 932 1287 1678 1705 1464 1479 1608 1872 2105 1435 1494 1502 1486 1697 1597 1787 1704 1681 1791 2209 2119
620 945 1420 1637 1411 1263 1500 1695 1329 1114 1186 745 767 785 863 841 835 1066 1338 1378 882 553 442 273 791 889 998 1686 1866 2363 1935 1665 1107 1615 1532 1224 867 527 1041 1572 2002 1854 2114
1021 813 972 1056 825 863 1537 1523 1356 1324 1489 1158 1168 952 844 1145 1558 1435 1615 1797 1321 1147 705 344 775 1178 1157 1463 1610 1585 761 828 937 1557 1374 920 395 271 612 1927 2469 2135 2146
535 525 853 1341 1061 506 315 1295 1563 1245 991 975 778 871 1273 1188 562 456 780 1178 1526 1216 983 821 1105 827 1137 988 1028 1684 1711 1620 1396 981 1047 862 57 458 995 1687 2478 2757 2723
601 714 894 1195 1440 731 897 1208 1260 870 716 632 773 1221 764 452 204 261 835 1302 1084 1006 766 877 847 677 698 356 343 566 556 791 1139 1368 1303 727 650 744 750 960 1909 3080 2564
426 626 381 717 859 727 438 1380 1238 1038 655 744 944 1049 686 223 68 111 400 381 593 266 75 48 42 84 124 395 435 334 462 464 870 1374 1468 882 946 1119 1104 1113 1858 2866 2907
297 521 380 409 813 500 399 497 469 446 552 823 1051 1162 1047 1069 798 496 447 236 72 0 59 267 370 208 414 769 1077 1211 1203 707 581 806 928 950 1089 1260 1581 1615 1788 2250 2648
182 246 197 389 527 466 175 125 129 243 429 588 947 1255 1437 1380 1217 1307 1034 984 802 512 1087 1099 1061 905 999 1261 1476 1366 1523 1560 1429 1027 931 859 1132 1429 1719 2193 2331 2408 2239
0 47 89 152 186 190 398 406 244 223 414 811 1034 1381 1603 1383 1342 1514 1568 1136 1085 1190 1518 1507 1265 1357 1677 1628 1720 1781 1793 1759 1633 1490 1706 1226 1249 1518 1806 2161 1580 1220 1505
8 0 21 13 0 114 617 1132 882 940 1056 1104 1080 1072 1509 1520 1106 1243 1880 1491 1846 1896 1810 1668 1490 1482 1919 1809 1754 1803 1841 1786 1289 1186 729 586 1043 1915 2100 1993 1840 1744 2001
171 54 71 0 50 346 858 1016 967 838 593 1068 1176 1391 1467 1661 1057 1576 2067 1971 2096 2327 2290 1736 1612 1658 1893 1833 1969 1411 1542 1201 868 713 549 498 603 922 1345 1345 1428 1492 1744
216 363 246 33 118 329 701 906 1050 984 1088 1229 1294 1296 1359 1363 945 1300 2833 2135 2325 2439 1930 1099 1490 1726 1995 2193 2227 1331 1249 1062 967 716 578 501 927 1024 1036 1218 1186 1794 1588
601 542 523 428 331 321 601 843 1331 1672 1542 1373 1269 1332 1696 1506 1577 2029 2144 2222 2313 2498 1310 1149 1769 1699 2058 2086 1980 1404 1241 1006 837 638 654 920 859 681 781 873 1015 1180 1091
723 607 556 552 560 536 745 959 1043 1216 1366 1244 1098 862 1085 1469 1824 2051 2049 2303 2499 2282 2049 2312 2385 2288 2037 2313 1962 1328 1156 633 912 784 699 794 530 272 352 425 442 890 820
662 599 596 631 744 638 785 912 969 784 1010 1001 932 1366 1922 1955 1806 2103 2180 2161 2594 2599 2770 2500 2155 2328 2071 2626 2187 1587 1321 1051 601 554 678 774 267 11 4 15 8 7 0
470 549 597 669 848 719 810 825 767 886 834 1109 1653 1866 1850 1609 1883 2066 2349 2191 2158 1988 2699 2843 2578 2623 2348 2574 2241 1558 1143 942 331 316 429 394 81 0 1 4 0 0 0
274 481 545 655 751 727 678 654 739 972 1137 1037 1198 1653 1930 1841 1848 2142 2160 2186 2143 2061 1869 2742 2686 2014 2422 2355 2113 1893 755 230 876 204 264 141 159 20 11 0 0 0 0
172 304 480 610 655 563 584 541 819 451 404 643 1420 1830 2117 1770 1889 2006 2201 2247 2107 1819 2288 2484 2991 2707 2667 2586 1950 1630 1294 1219 110 302 99 198 92 41 0 0 0 0 0
102 157 330 553 605 435 392 504 589 724 623 924 1294 2276 2450 1975 1715 1666 2252 2205 2291 1863 2289 2886 2753 2691 2358 2187 1470 1595 1474 337 285 208 0 74 3 0 0 0 0 0 0
126 119 186 480 695 508 251 430 592 779 967 974 1476 1802 1565 1923 1619 2375 2231 2135 2268 2376 2710 2858 2573 2350 2056 1037 443 491 272 119 21 0 0 54 20 0 0 0 0 0 0
CIN
0 0 0 0 0 0 0 0 0 0 0 0 0 0 0 0 0 0 0 0 0 0 0 0 -2 -2 -3 -1 -2 -6 0 0 -13 -13 0 0 0 0 0 0 0 0 0
-1 0 -1 0 0 0 0 0 0 0 0 0 0 0 0 0 0 0 0 0 0 0 0 -2 -6 -4 -3 -4 -4 -1 -6 -4 -1 -1 0 0 0 -1 -2 0 -1 -1 0
-1 0 0 0 0 -1 0 0 0 0 0 0 0 0 0 0 0 0 0 0 0 -2 0 0 -9 -13 -11 -16 -24 -13 -3 -2 -3 -2 -2 -2 0 0 0 0 -1 -1 0
-6 -1 0 -2 0 0 -1 0 0 0 0 0 0 0 0 0 0 0 0 0 -1 -6 -17 -20 -27 -31 -18 -12 -12 -13 -11 -11 -6 -1 0 -1 -7 -1 0 0 0 0 0
-2 -1 0 0 0 0 -1 -7 0 0 0 -1 0 0 -1 -6 -11 -12 -16 -23 -30 -25 -24 -26 -25 -17 -17 -18 -19 -13 -18 -16 -11 -15 -1 0 -1 -4 -2 0 0 0 0
0 0 0 0 0 0 0 0 0 0 -4 -23 -21 -2 -9 -15 -22 -26 -31 -39 -59 -38 -14 -18 -18 -25 -25 -17 -11 -12 -7 -9 -11 -9 -3 0 0 -3 -11 -2 0 0 0
-1 -4 0 0 0 0 0 -1 0 -2 -3 -31 -36 -28 -36 -34 -32 -43 -51 -43 -32 -12 -21 -17 -5 -8 -3 -2 -8 -13 -5 -8 0 0 0 -1 -1 -16 -13 -6 -2 -1 0
-10 0 0 -1 0 0 -2 -1 0 0 -5 -37 -44 -47 -39 -38 -30 -17 -11 -8 -36 -34 -33 -92 -32 -29 -32 0 -9 -7 -13 -9 -1 0 -6 -13 -49 -107 -61 -25 -4 -2 -1
0 -1 0 0 -1 0 0 -1 0 0 0 0 0 -16 -30 -7 0 -19 -11 -7 -27 -13 -15 -77 -38 -14 -36 -33 -23 -23 -70 -60 -29 -2 -10 -31 -132 -169 -97 -21 -10 -2 -1
-9 -11 0 0 0 -17 -33 0 0 0 0 -7 -30 -35 -20 -21 -78 -101 -65 -45 -27 -38 -37 -51 -34 -71 -61 -82 -80 -29 -22 -23 -19 -55 -61 -60 -260 -155 -79 -34 -5 -1 0
-16 -3 0 0 0 -15 -9 -1 0 -12 -36 -59 -51 -39 -60 -73 -110 -105 -80 -37 -55 -63 -79 -75 -78 -84 -103 -132 -148 -132 -139 -49 -42 -44 -60 -142 -187 -150 -122 -86 -27 -1 -2
-47 -22 -46 -11 -5 -26 -56 -1 -1 -21 -49 -59 -47 -56 -67 -139 -186 -153 -122 -140 -115 -142 -182 -216 -250 -211 -142 -77 -79 -148 -85 -86 -78 -61 -58 -164 -164 -131 -113 -92 -40 -6 -3
-65 -42 -58 -50 -16 -62 -72 -63 -61 -62 -64 -60 -55 -58 -68 -65 -92 -98 -85 -101 -136 -2 -111 -105 -109 -113 -113 -98 -81 -63 -62 -74 -67 -70 -106 -184 -154 -116 -68 -50 -33 -5 -2
-91 -75 -79 -54 -50 -83 -124 -124 -115 -77 -65 -56 -63 -63 -53 -50 -66 -69 -61 -83 -113 -105 -90 -89 -70 -89 -70 -65 -62 -58 -41 -35 -30 -51 -88 -165 -119 -75 -34 -6 0 -3 -5
0 -118 -118 -102 -108 -129 -105 -81 -95 -90 -60 -57 -52 -53 -53 -50 -65 -65 -63 -83 -93 -84 -63 -65 -71 -66 -43 -33 -30 -32 -30 -32 -36 -44 -23 -100 -97 -61 -36 -7 -33 -33 -17
-48 0 -63 -40 0 -138 -63 -47 -50 -50 -53 -53 -47 -46 -59 -60 -82 -67 -46 -63 -41 -48 -56 -65 -75 -66 -21 -16 -16 -25 -32 -25 -63 -68 -88 -97 -106 -43 -12 -10 -3 -7 -8
-74 -132 -117 0 -160 -90 -54 -45 -46 -55 -50 -43 -40 -56 -63 -65 -85 -68 -41 -31 -31 -44 -47 -33 -40 -35 -13 -10 0 -23 -29 -59 -84 -101 -98 -83 -74 -62 -23 -14 -21 -25 -27
-69 -77 -71 -113 -125 -83 -56 -44 -45 -51 -51 -36 -40 -48 -76 -69 -95 -67 -26 -13 -30 -20 -23 -35 -26 -19 -10 0 0 -23 -21 -42 -50 -65 -61 -63 -31 -11 -7 -12 -20 -4 -16
-49 -65 -74 -63 -72 -83 -70 -55 -40 -43 -32 -33 -42 -37 -49 -94 -56 -43 -16 -13 -30 -18 -40 -48 -21 -28 -4 -4 -3 -16 -22 -33 -33 -24 -28 -18 -10 -13 -5 -22 -18 -15 -20
-46 -56 -68 -68 -62 -75 -51 -56 -43 -33 -25 -35 -42 -42 -74 -49 -54 -34 -20 -22 -23 -20 -11 -12 -19 -10 -8 -4 -7 -13 -1 -18 -6 -3 -8 -2 -6 -36 -33 -31 -20 -2 -16
-64 -72 -80 -81 -73 -78 -55 -35 -25 -17 -19 -20 -32 -48 -53 -49 -43 -37 -18 -20 -19 -18 -16 -25 -27 -14 0 -4 0 0 0 0 0 0 0 0 -20 -138 -86 -52 -48 -43 -1
-84 -113 -97 -101 -94 -96 -56 -50 -44 -33 -28 -33 -29 -35 -47 -50 -43 -32 -34 -28 -40 -28 -24 -16 -13 -2 -3 -4 -2 0 0 0 -16 -20 -12 -11 -138 -10 -45 -61 0 0 0
-101 -126 -136 -126 -118 -117 -104 -89 -82 -60 -44 -27 -19 -12 -36 -63 -54 -44 -38 -46 -55 -54 -19 -25 -3 -2 0 -2 0 0 0 -36 0 -54 -51 -116 -92 -18 -52 0 0 0 0
-143 -125 -130 -138 -141 -141 -133 -110 -60 -80 -85 -62 -20 -27 -33 -71 -52 -39 -48 -61 -86 -59 -35 -14 -7 -2 -2 0 0 0 0 0 -113 -37 -132 -88 -164 -184 0 0 0 0 0
-156 -166 -146 -152 -154 -173 -178 -129 -89 -48 -51 -38 -26 -30 -45 -65 -65 -44 -46 -60 -64 -36 -25 -13 -3 -6 0 0 -1 0 0 -55 -60 -73 0 -166 -16 0 0 0 0 0 0
-174 -170 -151 -162 -169 -184 -221 -162 -119 -79 -44 -33 -21 -13 -18 -25 -37 -37 -38 -50 -48 -26 -10 -6 -14 0 0 -25 -95 -62 -116 -208 -314 0 0 -124 -275 0 0 0 0 0 0
Wind_Speed
6 9 12 14 12 11 12 11 11 11 10 10 11 10 10 10 9 9 8 8 6 6 5 7 6 5 4 4 4 4 4 2 3 3 3 4 4 5 4 5 7 5 7
9 9 13 12 13 11 11 11 11 10 11 10 11 10 10 10 10 10 8 7 8 6 6 5 3 4 5 5 3 3 2 1 1 4 4 5 3 5 5 6 5 5 6
11 10 12 11 12 12 10 10 9 10 9 10 8 10 9 10 10 9 8 6 6 5 5 4 4 3 3 2 3 2 2 1 2 2 2 2 3 5 6 6 6 6 7
10 10 9 10 10 11 9 10 9 9 9 9 8 9 9 9 9 8 7 6 5 3 2 2 0 3 4 4 4 4 5 5 6 5 5 4 5 6 7 9 8 8 9
10 9 9 9 10 10 9 8 7 8 8 7 8 8 8 6 5 5 4 3 1 0 1 3 5 6 6 6 6 6 7 8 8 8 6 6 5 5 9 9 9 11 10
10 9 12 10 8 10 8 7 8 7 7 6 5 5 5 4 2 1 1 1 3 3 3 3 4 4 5 5 6 6 7 9 9 8 7 7 8 5 9 11 11 12 11
10 9 10 9 9 8 7 6 7 6 6 5 4 3 1 1 1 2 3 4 5 2 4 6 5 5 8 9 10 10 8 7 8 7 8 8 8 8 10 11 12 12 12
10 9 10 10 8 8 6 7 7 6 6 5 3 1 2 3 4 6 6 6 4 1 6 5 5 7 7 10 12 10 5 4 7 7 7 6 6 9 10 12 14 13 13
9 8 7 8 8 7 6 6 6 4 4 3 1 2 5 6 6 5 6 5 3 3 5 5 6 8 9 11 9 6 3 2 7 5 7 5 5 10 12 12 15 13 14
8 7 6 6 6 4 7 6 4 3 2 1 1 2 4 5 6 7 5 3 4 6 6 5 7 8 9 8 7 6 6 7 6 4 5 5 6 8 9 10 12 14 15
7 7 6 6 5 4 4 4 4 2 1 1 1 4 2 4 5 5 7 4 3 5 5 5 6 8 8 4 5 7 8 4 5 4 4 3 10 11 11 10 12 14 15
9 8 7 6 6 5 3 1 2 2 0 2 3 4 3 4 4 6 4 5 5 5 6 8 8 8 5 5 4 4 4 5 4 3 4 6 11 10 12 11 13 15 19
9 7 7 6 5 5 3 1 1 0 1 1 3 4 4 4 4 3 2 3 4 4 4 5 5 4 6 5 5 5 6 5 3 2 2 9 10 11 12 13 13 14 13
10 9 8 7 5 5 2 2 1 2 1 2 3 4 3 3 3 4 4 4 4 4 5 5 4 6 7 7 8 8 8 6 4 3 2 6 8 8 9 10 9 9 9
10 9 8 7 6 4 4 2 2 2 2 4 4 5 4 4 5 5 4 5 4 4 4 5 5 6 7 8 8 8 9 7 7 5 4 9 8 5 5 7 4 8 9
9 10 9 8 6 5 4 3 2 2 3 3 4 4 5 4 4 6 7 6 6 6 6 6 6 6 6 8 9 9 8 7 7 8 6 6 11 12 7 5 5 7 10
10 10 10 9 8 7 5 3 3 4 4 4 5 6 5 5 4 7 6 6 6 6 6 6 7 6 5 5 5 5 5 6 6 8 6 6 6 10 15 13 11 9 10
10 11 10 8 9 7 5 3 2 2 2 3 4 5 5 5 4 6 6 5 6 5 4 6 6 6 5 4 5 4 5 5 7 8 8 7 7 7 10 17 17 16 14
12 11 10 9 8 8 5 4 3 3 2 2 3 3 5 5 6 6 6 6 6 4 4 5 5 5 7 7 6 4 6 7 8 8 8 9 10 8 6 14 17 18 18
13 11 10 9 8 6 4 4 3 3 3 2 2 3 5 4 4 4 5 6 5 4 4 4 6 6 5 5 5 3 5 6 6 6 7 6 9 9 8 9 7 12 19
13 13 13 11 9 6 5 5 4 4 3 2 3 4 4 1 2 3 4 4 4 5 6 5 5 6 7 5 3 1 3 6 7 5 5 6 8 8 8 9 7 7 7
15 15 13 13 11 9 7 4 3 3 3 3 3 5 4 4 3 4 4 4 5 6 6 5 4 4 3 3 3 3 1 4 5 5 5 5 6 5 6 8 9 10 8
15 17 16 15 13 11 9 5 3 3 2 3 2 3 4 4 3 3 4 5 5 5 6 5 5 7 5 2 2 3 3 3 2 2 5 4 3 4 4 6 9 8 9
18 15 15 15 14 11 10 8 8 7 7 4 2 2 4 3 2 4 5 6 6 5 6 5 4 5 3 5 1 2 3 3 3 2 3 3 2 3 5 5 6 8 7
15 16 16 14 13 11 11 10 8 8 5 3 2 3 3 3 3 3 4 5 3 2 3 5 5 6 3 4 3 1 1 1 1 3 2 3 3 1 3 3 4 5 6
14 14 14 15 13 12 11 11 11 10 7 5 4 3 2 2 1 3 5 4 3 4 4 4 4 4 4 3 3 3 3 2 2 2 3 2 3 2 1 1 2 4 4
Wind_Direction
172 155 148 140 137 121 113 114 117 115 113 114 110 117 117 114 114 112 123 125 137 110 103 83 75 71 83 84 78 61 48 81 115 117 113 114 130 128 136 149 146 155 133
148 157 143 145 131 123 118 114 113 118 117 111 119 119 115 113 117 121 123 123 117 115 100 100 92 41 57 62 58 79 88 32 245 182 166 164 176 159 171 165 141 117 156
147 145 147 139 134 128 126 121 114 105 111 115 110 109 110 114 115 110 112 112 111 112 118 116 89 71 69 94 120 161 174 195 247 277 191 196 187 193 200 189 182 190 174
139 144 146 130 134 131 127 115 108 112 106 106 97 107 101 108 115 120 118 114 114 120 103 71 346 247 234 228 212 214 215 208 214 226 223 212 230 181 205 207 213 203 199
138 144 138 142 139 138 122 112 111 112 104 104 102 99 106 103 99 104 104 94 75 341 294 283 265 270 274 263 248 228 225 229 226 223 224 234 229 200 227 231 210 208 207
136 143 131 139 135 119 120 125 121 111 114 111 115 112 116 112 113 74 53 294 267 276 289 273 282 280 270 300 299 268 236 231 235 233 233 230 246 250 234 239 239 225 207
143 141 139 143 134 123 119 131 123 115 117 129 137 123 110 74 0 326 308 296 296 4 326 294 298 311 319 333 330 306 288 258 254 243 240 244 244 227 247 247 238 217 215
146 149 143 135 135 136 159 138 119 143 144 141 152 154 318 328 337 326 313 312 305 86 15 341 329 345 344 350 337 316 292 289 254 247 240 244 238 236 242 254 240 224 223
145 146 145 145 141 153 126 139 151 150 127 131 90 347 332 342 3 348 351 329 329 354 15 30 9 355 328 330 336 341 352 316 285 263 256 257 200 238 240 250 223 224 227
154 153 153 156 144 156 154 176 138 125 134 123 39 341 351 38 36 13 339 42 46 53 35 18 359 9 357 2 351 347 314 280 269 247 241 249 242 239 239 249 230 222 220
166 164 163 160 153 155 172 143 157 149 177 299 353 7 20 27 355 2 4 28 356 17 30 4 351 345 343 321 323 328 315 303 292 248 247 233 249 239 240 249 247 238 226
170 179 174 173 166 169 179 138 120 123 328 327 350 341 357 14 343 329 337 351 340 3 360 340 335 327 312 343 333 281 285 284 272 282 254 243 247 239 233 238 243 235 223
174 191 182 173 173 189 165 194 149 195 291 317 342 344 346 338 346 337 333 313 322 320 317 336 342 342 342 337 333 324 316 298 284 310 327 228 244 247 244 244 251 257 249
183 189 185 182 183 190 177 190 173 246 287 315 342 327 332 333 326 344 345 352 328 342 339 345 347 341 346 353 342 332 329 334 344 336 347 284 279 272 279 280 279 282 263
184 182 194 188 194 202 187 183 193 261 295 333 323 333 342 344 330 330 330 341 333 340 344 346 348 348 346 349 343 338 344 345 356 2 14 31 7 331 288 293 267 256 276
181 183 180 184 193 197 197 189 216 257 298 305 312 315 319 319 325 329 334 329 331 349 353 351 346 328 341 352 349 350 343 0 21 14 21 27 29 50 61 32 354 329 316
184 179 185 181 183 195 205 227 254 258 262 281 286 294 305 300 316 324 320 315 341 344 343 346 348 350 343 356 350 33 41 45 30 28 18 15 16 50 34 45 48 38 39
186 184 184 195 184 199 209 231 248 233 220 258 273 287 274 281 275 283 292 328 339 330 336 344 347 342 338 355 14 29 49 52 40 35 28 23 21 30 58 49 49 45 65
195 189 194 199 210 195 208 231 211 183 230 276 271 278 291 279 266 274 298 314 319 313 316 322 338 337 340 358 357 28 44 39 35 33 31 38 39 37 46 64 56 53 47
202 198 199 206 213 209 196 213 242 243 256 280 280 290 306 300 264 281 294 298 296 290 297 330 336 348 336 353 349 37 58 65 41 30 23 42 48 46 50 49 49 56 43
202 202 202 200 212 194 192 208 222 234 248 275 286 326 336 331 248 275 296 297 299 300 329 335 334 341 344 348 312 291 94 65 51 52 45 46 51 54 48 52 43 41 41
203 203 203 208 201 204 206 213 231 234 241 288 315 318 325 350 300 282 287 305 306 308 320 332 355 333 315 342 331 328 242 145 76 54 53 52 62 52 45 60 56 45 26
206 205 201 204 203 205 211 221 215 199 214 242 263 308 351 327 279 271 297 299 297 293 309 328 349 333 320 8 9 339 320 358 129 68 61 57 54 77 56 61 50 48 37
212 203 205 201 199 205 207 221 231 232 226 223 252 321 331 346 302 298 313 310 294 300 311 336 347 336 331 338 34 71 63 342 324 200 115 82 85 72 54 48 43 44 37
209 204 201 198 198 194 199 214 215 231 227 207 243 297 347 27 348 38 358 343 319 292 337 346 350 7 355 344 351 335 54 51 18 300 307 168 123 55 51 48 34 35 41
206 207 198 198 196 191 192 202 220 222 220 216 228 259 333 47 65 351 356 8 6 354 2 357 38 29 43 57 51 52 30 354 359 312 289 245 287 189 168 65 23 30 34